Location: Newark
(25.0000°N, 73.5000°E)
Time: 04:33:24
(UTC+00:00)

ISS - Pass Details

Date: 22 June 2021
Orbit: 419 x 421 km, 51.6° (Epoch: 03 August)

Event Time Altitude Azimuth Distance (km) Brightness Sun altitude
Exits shadow 23:02:03 25° 188° (S) 882 -2.5 -15.5°
Maximum altitude 23:03:37 46° 129° (SE) 572 -3.0 -15.2°
Drops below altitude 10° 23:06:51 10° 54° (NE) 1,493 0.5 -14.6°
Sets 23:08:59 0° 48° (NE) 2,358 2.0 -14.2°
